All Spectrum Aviation - Van Nuys Airport - KVNY

HOME

Van Nuys Tower Recordings

Condor Squadron KVNY Webcam

Visit our Electronics Store

2017/12/16 13:51 KVNY 161351Z AUTO 00000KT 9SM FU CLR 10/02 A2977 RMK AO2 SLP075 T01000017
LATEST VAN NUYS ATIS IN MP3!
Older ATIS Recordings

Van Nuys Tower recordings

NEW FEATURE: RECORDINGS WITH SILENCE REMOVED!

All in MP3 format. 1 hour long MP3s for each file, 119.3 file is tower only
scan file is 119.0 HELI, 121.7 GROUND, 120.2 TOWER EAST, 126.6 CLEARANCE, 460.525 and 453.375 OPS

Today (2017/12/16) and Yesterday (2017/12/15)